Location: El Gallo
(32.4380°N, 116.9347°W)
Time: 18:53:51
(UTC+00:00)

Okean 1 - Pass Details

Date: 01 October 2022
Orbit: 526 x 554 km, 82.5° (Epoch: 01 December)

Event Time Altitude Azimuth Distance (km) Brightness Sun altitude
Exits shadow 12:47:03 14° 232° (SW) 1,612 5.2 -12.4°
Maximum altitude 12:49:42 25° 281° (WNW) 1,148 4.4 -11.8°
Drops below altitude 10° 12:53:04 10° 338° (NNW) 1,840 5.8 -11.1°
Sets 12:55:33 0° 352° (N) 2,737 6.8 -10.6°
